Погода в Шкуновке

Россия / Оренбургская область     50°46′15″N   55°22′19″E
темп.,
°C
ветер,
м/с
пор.,
м/с
влажн.,
%
обл.,
%
осадки,
мм/ч
давл.,
гПа
погр.,
м
6 мая, чт
чт623:00+9сз511550 0.0 1015392
02:00+7сз35644 0.0 101684
05:00+6сз36685 0.0 1017103
08:00+9ссз486261 0.0 1019369
11:00+13с5744100 0.0 10191402
14:00+16ссз453788 0.0 10191829
17:00+17с453675 0.0 10191802
20:00+15с334971 0.0 101941
7 мая, пт
пт723:00+12св225498 0.0 102013
02:00+11в226025 0.0 102014
05:00+10всв336483 0.0 102132
08:00+12в586194 0.0 1021290
11:00+16в5647100 0.0 1021831
14:00+19в4436100 0.0 10191968
17:00+20в443495 0.0 10182195
20:00+16вюв475196 0.0 1018173
8 мая, сб
сб823:00+14всв345598 0.0 101857
02:00+13св3458100 0.0 101882
05:00+12вюв2262100 0.0 101815
08:00+14св2357100 0.0 1019173
11:00+18всв234296 0.0 1018853
14:00+20св2233100 0.0 10182440
17:00+20ссв2232100 0.0 10172358
20:00+17ссв1451100 0.0 101780
9 мая, вс
вс923:00+14ю116220 0.0 101815
02:00+13юз22663 0.0 101816
05:00+11ссз12695 0.0 101810
08:00+15с22572 0.0 1018152
11:00+19ссз34410 0.0 10181473
14:00+21ссв33353 0.0 10172201
17:00+22ссв223211 0.0 10172456
20:00+20всв234439 0.0 101729
10 мая, пн
пн1023:00+16в33495 0.0 101831
02:00+15в33535 0.0 101928
05:00+13ююв11595 0.0 102011
08:00+17всв2351100 0.0 1021140
11:00+21всв333898 0.0 1021988
14:00+23всв333117 0.0 10212283
17:00+24всв333082 0.0 10212452
20:00+20в454534 0.0 102279